Location: Newark
(7.0858°N, 171.3717°E)
Time: 14:21:42
(UTC+00:00)

Vanguard 3 - Pass Details

Date: 02 December 2020
Orbit: 508 x 3262 km, 33.4° (Epoch: 14 January)

Event Time Altitude Azimuth Distance (km) Brightness Sun altitude
Exits shadow 17:59:30 - 264° (W) 4,691 10.5 -8.4°
Reaches altitude 10° 18:01:45 10° 256° (WSW) 4,350 10.4 -7.8°
Maximum altitude 18:11:43 26° 205° (SSW) 4,072 10.7 -5.5°
Drops below altitude 10° 18:25:30 10° 156° (SSE) 6,037 12.3 -2.4°
Sets 18:32:04 0° 145° (SE) 7,210 13.1 -0.9°
